When you browse on this site, cookies collect data to enhance your experience and personalize the content and advertising you see.
Visit our Privacy Policy to learn more. By continuing to use the site, you agree to this use of cookies and data.
  • Em Portugal
  • Lista de países
  • Para 7 dias
  • Temperatura da água
  • Mapa do tempo
  • Widgets de tempo
  • user-avatar
    Iniciar Sessão

    Previsão horária em Ayalizimahi

    Hoje, 23 Setembro, Segunda-feira

    Tempo Temperatura Precipitação Vento Pressão Humidade
    00:00 +7°C° 0 mm 1 m/s 671 mmHg 71%
    01:00 +7°C° 0 mm 1 m/s 671 mmHg 69%
    02:00 +6°C° 0 mm 2 m/s 671 mmHg 66%
    03:00 +6°C° 0 mm 2 m/s 671 mmHg 63%
    04:00 +6°C° 0 mm 2 m/s 671 mmHg 62%
    05:00 +6°C° 0 mm 2 m/s 671 mmHg 62%
    06:00 +7°C° 0 mm 1 m/s 670 mmHg 61%
    07:00 +8°C° 0 mm 2 m/s 671 mmHg 55%
    08:00 +10°C° 0 mm 2 m/s 671 mmHg 49%
    09:00 +13°C° 0 mm 2 m/s 672 mmHg 39%
    10:00 +14°C° 0 mm 2 m/s 672 mmHg 39%
    11:00 +14°C° 0 mm 3 m/s 672 mmHg 39%
    12:00 +14°C° 0 mm 3 m/s 672 mmHg 39%
    13:00 +14°C° 0 mm 3 m/s 671 mmHg 40%
    14:00 +14°C° 0 mm 3 m/s 671 mmHg 42%
    15:00 +14°C° 0 mm 3 m/s 671 mmHg 44%
    16:00 +13°C° 0 mm 2 m/s 670 mmHg 51%
    17:00 +11°C° 0 mm 1 m/s 670 mmHg 58%
    18:00 +10°C° 0 mm 1 m/s 670 mmHg 64%
    19:00 +9°C° 0 mm 1 m/s 670 mmHg 64%
    20:00 +9°C° 0 mm 1 m/s 670 mmHg 64%
    21:00 +9°C° 0 mm 1 m/s 671 mmHg 64%
    22:00 +8°C° 0 mm 2 m/s 671 mmHg 64%
    23:00 +8°C° 0 mm 2 m/s 670 mmHg 64%

    Amanhã, 24 Setembro, Terça-feira

    Tempo Temperatura Precipitação Vento Pressão Humidade
    00:00 +8°C° 0 mm 2 m/s 670 mmHg 64%
    01:00 +8°C° 0 mm 2 m/s 670 mmHg 64%
    02:00 +7°C° 0 mm 2 m/s 670 mmHg 64%
    03:00 +7°C° 0 mm 2 m/s 670 mmHg 63%
    04:00 +7°C° 0 mm 2 m/s 670 mmHg 63%
    05:00 +7°C° 0 mm 2 m/s 670 mmHg 62%
    06:00 +7°C° 0 mm 2 m/s 670 mmHg 61%
    07:00 +9°C° 0 mm 2 m/s 670 mmHg 53%
    08:00 +13°C° 0 mm 2 m/s 671 mmHg 45%
    09:00 +15°C° 0 mm 2 m/s 672 mmHg 37%
    10:00 +16°C° 0 mm 3 m/s 672 mmHg 39%
    11:00 +16°C° 0 mm 3 m/s 671 mmHg 41%
    12:00 +17°C° 0 mm 4 m/s 671 mmHg 42%
    13:00 +17°C° 0 mm 4 m/s 671 mmHg 47%
    14:00 +17°C° 0 mm 3 m/s 671 mmHg 52%
    15:00 +16°C° 0 mm 3 m/s 670 mmHg 57%
    16:00 +15°C° 0 mm 2 m/s 670 mmHg 67%
    17:00 +13°C° 0 mm 2 m/s 669 mmHg 77%
    18:00 +11°C° 0 mm 1 m/s 669 mmHg 87%
    19:00 +11°C° 0 mm 1 m/s 669 mmHg 86%
    20:00 +11°C° 0 mm 1 m/s 669 mmHg 85%
    21:00 +9°C° 0 mm 0 m/s 669 mmHg 84%
    22:00 +10°C° 0 mm 1 m/s 669 mmHg 82%
    23:00 +10°C° 0 mm 1 m/s 669 mmHg 81%

    Depois de amanhã, 25 Setembro, Quarta-feira

    Tempo Temperatura Precipitação Vento Pressão Humidade
    00:00 +10°C° 0 mm 1 m/s 668 mmHg 79%
    01:00 +10°C° 0 mm 1 m/s 668 mmHg 76%
    02:00 +9°C° 0 mm 0 m/s 668 mmHg 74%
    03:00 +9°C° 0 mm 0 m/s 668 mmHg 72%
    04:00 +10°C° 0 mm 1 m/s 668 mmHg 73%
    05:00 +10°C° 0 mm 1 m/s 668 mmHg 73%
    06:00 +10°C° 0 mm 1 m/s 668 mmHg 74%
    07:00 +11°C° 0 mm 1 m/s 669 mmHg 70%
    08:00 +13°C° 0 mm 2 m/s 669 mmHg 65%
    09:00 +15°C° 0 mm 2 m/s 670 mmHg 60%
    10:00 +16°C° 0 mm 3 m/s 670 mmHg 61%
    11:00 +16°C° 0 mm 3 m/s 670 mmHg 62%
    12:00 +15°C° 0 mm 4 m/s 670 mmHg 63%
    13:00 +16°C° 0 mm 3 m/s 670 mmHg 67%
    14:00 +14°C° 0 mm 3 m/s 670 mmHg 72%
    15:00 +13°C° 0 mm 3 m/s 670 mmHg 77%
    16:00 +14°C° 0 mm 2 m/s 670 mmHg 81%
    17:00 +13°C° 0 mm 1 m/s 670 mmHg 85%
    18:00 +12°C° 0 mm 1 m/s 670 mmHg 89%
    19:00 +12°C° 0 mm 1 m/s 670 mmHg 90%
    20:00 +11°C° 0 mm 1 m/s 670 mmHg 91%
    21:00 +11°C° 0 mm 1 m/s 670 mmHg 92%
    22:00 +11°C° 0 mm 1 m/s 670 mmHg 91%
    23:00 +11°C° 0 mm 1 m/s 670 mmHg 90%

    26 Setembro, Quinta-feira

    Tempo Temperatura Precipitação Vento Pressão Humidade
    00:00 +11°C° 0 mm 1 m/s 670 mmHg 88%
    01:00 +11°C° 0 mm 1 m/s 670 mmHg 86%
    02:00 +11°C° 0 mm 1 m/s 670 mmHg 84%
    03:00 +11°C° 0 mm 1 m/s 670 mmHg 82%
    04:00 +11°C° 0 mm 1 m/s 670 mmHg 80%
    05:00 +11°C° 0 mm 1 m/s 670 mmHg 77%
    06:00 +11°C° 0 mm 1 m/s 670 mmHg 75%
    07:00 +12°C° 0 mm 1 m/s 670 mmHg 70%
    08:00 +14°C° 0 mm 2 m/s 670 mmHg 65%
    09:00 +15°C° 0 mm 2 m/s 671 mmHg 61%
    10:00 +16°C° 0 mm 3 m/s 671 mmHg 59%
    11:00 +17°C° 0 mm 3 m/s 671 mmHg 57%
    12:00 +18°C° 0 mm 4 m/s 671 mmHg 55%
    13:00 +18°C° 0 mm 3 m/s 670 mmHg 59%
    14:00 +17°C° 0 mm 3 m/s 670 mmHg 62%
    15:00 +17°C° 0 mm 3 m/s 670 mmHg 66%
    16:00 +16°C° 0 mm 2 m/s 669 mmHg 73%
    17:00 +14°C° 0 mm 2 m/s 669 mmHg 80%
    18:00 +13°C° 0 mm 1 m/s 669 mmHg 87%
    19:00 +12°C° 0 mm 1 m/s 669 mmHg 89%
    20:00 +11°C° 0 mm 0 m/s 669 mmHg 91%
    21:00 +11°C° 0 mm 0 m/s 669 mmHg 92%
    22:00 +10°C° 0 mm 0 m/s 669 mmHg 92%
    23:00 +11°C° 0 mm 1 m/s 669 mmHg 91%

    27 Setembro, Sexta-feira

    Tempo Temperatura Precipitação Vento Pressão Humidade
    00:00 +11°C° 0 mm 1 m/s 669 mmHg 90%
    01:00 +11°C° 0 mm 1 m/s 669 mmHg 89%
    02:00 +11°C° 0 mm 1 m/s 669 mmHg 87%
    03:00 +10°C° 0 mm 1 m/s 669 mmHg 86%
    04:00 +10°C° 0 mm 1 m/s 669 mmHg 85%
    05:00 +10°C° 0 mm 1 m/s 669 mmHg 85%
    06:00 +10°C° 0 mm 1 m/s 669 mmHg 85%
    07:00 +12°C° 0 mm 2 m/s 669 mmHg 77%
    08:00 +14°C° 0 mm 2 m/s 670 mmHg 70%
    09:00 +16°C° 0 mm 3 m/s 670 mmHg 63%
    10:00 +16°C° 0 mm 3 m/s 670 mmHg 60%
    11:00 +17°C° 0 mm 3 m/s 670 mmHg 58%
    12:00 +18°C° 0 mm 4 m/s 670 mmHg 55%
    13:00 +18°C° 0 mm 4 m/s 670 mmHg 57%
    14:00 +18°C° 0 mm 4 m/s 669 mmHg 59%
    15:00 +17°C° 0 mm 4 m/s 669 mmHg 61%
    16:00 +16°C° 0 mm 3 m/s 669 mmHg 69%
    17:00 +14°C° 0 mm 2 m/s 669 mmHg 77%
    18:00 +13°C° 0 mm 1 m/s 668 mmHg 85%
    19:00 +13°C° 0 mm 1 m/s 668 mmHg 84%
    20:00 +13°C° 0 mm 1 m/s 669 mmHg 83%
    21:00 +13°C° 0 mm 1 m/s 669 mmHg 82%
    22:00 +13°C° 0 mm 1 m/s 669 mmHg 82%
    23:00 +13°C° 0 mm 1 m/s 669 mmHg 81%

    28 Setembro, Sábado

    Tempo Temperatura Precipitação Vento Pressão Humidade
    00:00 +13°C° 0 mm 1 m/s 668 mmHg 80%
    01:00 +11°C° 0 mm 0 m/s 668 mmHg 81%
    02:00 +11°C° 0 mm 0 m/s 668 mmHg 82%
    03:00 +11°C° 0 mm 0 m/s 667 mmHg 83%
    04:00 +10°C° 0 mm 0 m/s 667 mmHg 83%
    05:00 +11°C° 0 mm 1 m/s 667 mmHg 83%
    06:00 +11°C° 0 mm 1 m/s 667 mmHg 83%
    07:00 +13°C° 0 mm 1 m/s 667 mmHg 74%
    08:00 +15°C° 0 mm 2 m/s 667 mmHg 65%
    09:00 +17°C° 0 mm 2 m/s 668 mmHg 56%
    10:00 +17°C° 0 mm 3 m/s 668 mmHg 56%
    11:00 +17°C° 0 mm 3 m/s 669 mmHg 57%
    12:00 +17°C° 0 mm 4 m/s 669 mmHg 57%
    13:00 +14°C° 1.7 mm 4 m/s 669 mmHg 69%
    14:00 +12°C° 1.7 mm 3 m/s 669 mmHg 80%
    15:00 +11°C° 1.7 mm 3 m/s 668 mmHg 92%
    16:00 +10°C° 0.6 mm 3 m/s 669 mmHg 93%
    17:00 +10°C° 0.6 mm 2 m/s 669 mmHg 93%
    18:00 +10°C° 0.6 mm 2 m/s 669 mmHg 93%
    19:00 +11°C° 0.1 mm 1 m/s 670 mmHg 94%
    20:00 +11°C° 0.1 mm 1 m/s 670 mmHg 94%
    21:00 +11°C° 0.1 mm 1 m/s 670 mmHg 94%
    22:00 +10°C° 0.1 mm 1 m/s 671 mmHg 94%
    23:00 +10°C° 0.1 mm 1 m/s 671 mmHg 95%
    Mostrar mais